TimeHST,TemperatureF,Dew PointF,Humidity,Sea Level PressureIn,VisibilityMPH,Wind Direction,Wind SpeedMPH,Gust SpeedMPH,PrecipitationIn,Events,Conditions,WindDirDegrees,DateUTC
12:15 AM,78.8,71.6,78,30.02,10.0,ENE,10.4,-,N/A,,Mostly Cloudy,60,2013-08-23 10:15:00
12:23 AM,78.8,71.6,78,30.01,10.0,ENE,10.4,-,N/A,,Scattered Clouds,60,2013-08-23 10:23:00
12:53 AM,79.0,72.0,79,30.01,10.0,ENE,10.4,-,N/A,,Scattered Clouds,60,2013-08-23 10:53:00
1:00 AM,78.8,71.6,78,30.01,10.0,ENE,10.4,-,N/A,,Mostly Cloudy,60,2013-08-23 11:00:00
1:25 AM,78.8,71.6,78,30.01,10.0,NE,10.4,-,N/A,,Mostly Cloudy,50,2013-08-23 11:25:00
1:53 AM,79.0,72.0,79,30.00,10.0,ENE,10.4,-,N/A,,Overcast,60,2013-08-23 11:53:00
2:24 AM,78.8,71.6,78,30.00,10.0,ENE,9.2,-,N/A,,Mostly Cloudy,60,2013-08-23 12:24:00
2:45 AM,78.8,71.6,78,29.99,10.0,NE,11.5,-,N/A,,Mostly Cloudy,50,2013-08-23 12:45:00
2:53 AM,78.1,72.0,81,29.99,10.0,ENE,10.4,-,N/A,,Overcast,60,2013-08-23 12:53:00
3:06 AM,78.8,71.6,78,29.99,10.0,ENE,10.4,-,N/A,,Mostly Cloudy,60,2013-08-23 13:06:00
3:26 AM,78.8,71.6,78,29.99,10.0,ENE,8.1,-,N/A,,Mostly Cloudy,60,2013-08-23 13:26:00
3:53 AM,78.1,72.0,81,29.98,10.0,ENE,8.1,-,N/A,,Mostly Cloudy,60,2013-08-23 13:53:00
4:23 AM,78.8,71.6,78,29.98,10.0,ENE,10.4,-,N/A,,Scattered Clouds,70,2013-08-23 14:23:00
4:53 AM,77.0,70.0,79,29.98,10.0,NE,9.2,-,N/A,,Clear,50,2013-08-23 14:53:00
5:53 AM,77.0,71.1,82,29.99,10.0,NE,10.4,-,N/A,,Mostly Cloudy,50,2013-08-23 15:53:00
6:42 AM,78.8,71.6,78,30.00,10.0,NE,9.2,-,N/A,,Mostly Cloudy,50,2013-08-23 16:42:00
6:53 AM,78.1,71.1,79,30.00,10.0,ENE,8.1,-,N/A,,Mostly Cloudy,60,2013-08-23 16:53:00
7:05 AM,78.8,71.6,78,30.01,10.0,NE,9.2,-,N/A,,Mostly Cloudy,50,2013-08-23 17:05:00
7:07 AM,80.6,71.6,74,30.01,10.0,NE,9.2,-,N/A,,Mostly Cloudy,50,2013-08-23 17:07:00
7:53 AM,79.0,71.1,77,30.01,10.0,NE,8.1,-,N/A,,Overcast,40,2013-08-23 17:53:00
8:53 AM,82.0,69.1,65,30.03,10.0,NE,11.5,-,N/A,,Clear,50,2013-08-23 18:53:00
9:53 AM,82.9,70.0,65,30.03,10.0,NE,11.5,-,N/A,,Mostly Cloudy,40,2013-08-23 19:53:00
10:53 AM,84.0,69.1,61,30.03,10.0,ENE,10.4,-,N/A,,Partly Cloudy,60,2013-08-23 20:53:00
11:53 AM,84.0,70.0,63,30.02,10.0,ENE,10.4,-,N/A,,Scattered Clouds,60,2013-08-23 21:53:00
12:31 PM,82.4,71.6,70,30.02,10.0,ENE,9.2,-,N/A,,Mostly Cloudy,70,2013-08-23 22:31:00
12:42 PM,84.2,71.6,66,30.02,10.0,ENE,9.2,-,N/A,,Scattered Clouds,70,2013-08-23 22:42:00
12:53 PM,84.0,70.0,63,30.01,10.0,ENE,9.2,-,N/A,,Partly Cloudy,60,2013-08-23 22:53:00
1:53 PM,84.0,70.0,63,29.99,10.0,ENE,9.2,-,N/A,,Clear,70,2013-08-23 23:53:00
2:53 PM,84.9,71.1,63,29.97,10.0,ENE,9.2,-,N/A,,Partly Cloudy,60,2013-08-24 00:53:00
3:53 PM,84.0,70.0,63,29.96,10.0,ENE,10.4,-,N/A,,Partly Cloudy,60,2013-08-24 01:53:00
4:53 PM,82.0,69.1,65,29.96,10.0,ENE,10.4,-,N/A,,Partly Cloudy,70,2013-08-24 02:53:00
5:53 PM,81.0,69.1,67,29.96,10.0,NE,9.2,-,N/A,,Partly Cloudy,50,2013-08-24 03:53:00
6:41 PM,78.8,69.8,74,29.97,10.0,NE,10.4,-,N/A,,Mostly Cloudy,40,2013-08-24 04:41:00
6:53 PM,79.0,70.0,74,29.97,10.0,NE,10.4,-,N/A,,Mostly Cloudy,40,2013-08-24 04:53:00
7:25 PM,78.8,69.8,74,29.99,10.0,NE,11.5,-,N/A,,Scattered Clouds,40,2013-08-24 05:25:00
7:53 PM,79.0,70.0,74,29.99,10.0,NE,8.1,-,N/A,,Mostly Cloudy,40,2013-08-24 05:53:00
8:19 PM,78.8,71.6,78,30.01,10.0,NE,10.4,-,N/A,,Scattered Clouds,40,2013-08-24 06:19:00
8:53 PM,78.1,70.0,76,30.01,10.0,NE,11.5,-,N/A,,Mostly Cloudy,40,2013-08-24 06:53:00
9:11 PM,78.8,69.8,74,30.03,10.0,NE,10.4,-,N/A,,Scattered Clouds,50,2013-08-24 07:11:00
9:31 PM,78.8,69.8,74,30.04,10.0,ENE,9.2,-,N/A,,Mostly Cloudy,60,2013-08-24 07:31:00
9:53 PM,79.0,70.0,74,30.04,10.0,ENE,11.5,-,N/A,,Mostly Cloudy,60,2013-08-24 07:53:00
10:17 PM,78.8,69.8,74,30.05,10.0,ENE,12.7,-,N/A,,Mostly Cloudy,70,2013-08-24 08:17:00
10:53 PM,78.1,70.0,76,30.04,10.0,ENE,12.7,-,N/A,,Mostly Cloudy,60,2013-08-24 08:53:00
11:15 PM,78.8,69.8,74,30.04,10.0,ENE,11.5,-,N/A,,Mostly Cloudy,60,2013-08-24 09:15:00
11:24 PM,78.8,71.6,78,30.04,10.0,NE,13.8,-,N/A,,Mostly Cloudy,50,2013-08-24 09:24:00
11:37 PM,78.8,69.8,74,30.04,10.0,ENE,11.5,-,N/A,,Overcast,60,2013-08-24 09:37:00
11:53 PM,78.1,70.0,76,30.03,10.0,ENE,12.7,-,N/A,,Overcast,60,2013-08-24 09:53:00